AirNav   Air Wisconsin Up To $57,000 Bonus
 
 503 users online  

M11 Copiah County Airport
Crystal Springs, Mississippi, USA

GOING TO CRYSTAL SPRINGS?


FAA INFORMATION EFFECTIVE 31 DECEMBER 2020

Location

FAA Identifier: M11
Lat/Long: 31-54-08.8000N 090-22-00.3000W
31-54.146667N 090-22.005000W
31.9024444,-90.3667500
(estimated)
Elevation: 435.4 ft. / 132.7 m (surveyed)
Variation: 01W (2020)
From city: 4 miles S of CRYSTAL SPRINGS, MS
(LCTD 3 SM NE OF HAZLEHURST.)
Time zone: UTC -6 (UTC -5 during Daylight Saving Time)
Zip code: 39083

Airport Operations

Airport use: Open to the public
Activation date: 10/1964
Control tower: no
ARTCC: MEMPHIS CENTER
FSS: GREENWOOD FLIGHT SERVICE STATION
NOTAMs facility: GWO (NOTAM-D service available)
Attendance: MON-SAT 0800-1700
AFT HR CTC AMGR.
Wind indicator: yes
Segmented circle: no
Lights: SS-SR
Beacon: white-green (lighted land airport)
Operates sunset to sunrise.

Airport Communications

CTAF: 122.9
WX AWOS-3P at 1R7 (18 nm S): 118.125 (601-833-3209)
  • APCH/DEP SVC PRVDD BY MEMPHIS ARTCC ON FREQS 132.5/259.1 (JACKSON RCAG).

Nearby radio navigation aids

VOR radial/distance  VOR name  Freq  Var
MHZr204/34.7MAGNOLIA VORTAC113.2001W
MCBr348/36.3MC COMB VORTAC116.7003E

 
NDB name  Hdg/Dist  Freq  Var  ID
TALLULAH120/39.334402ETKH - -.- ....

Airport Services

Fuel available: 100LL
FUEL H24 WITH CREDIT CARD.
Parking: hangars and tiedowns
Airframe service: MAJOR
Powerplant service: MAJOR
Bottled oxygen: NONE
Bulk oxygen: NONE

Runway Information

Runway 18/36

Dimensions: 4007 x 75 ft. / 1221 x 23 m
Surface: asphalt, in good condition
Weight bearing capacity: 
Single wheel: 10.0
Runway edge lights: medium intensity
RUNWAY 18  RUNWAY 36
Latitude: 31-54.476730N31-53.818115N
Longitude: 090-22.036578W090-21.973243W
Elevation: 435.3 ft.395.6 ft.
Traffic pattern: leftleft
Runway heading: 176 magnetic, 175 true356 magnetic, 355 true
Markings: nonprecision, in good conditionnonprecision, in good condition
Visual slope indicator: 2-light PAPI on right (4.00 degrees glide path)2-light PAPI on left (3.00 degrees glide path)
Runway end identifier lights: yesyes
Touchdown point: yes, no lightsyes, no lights
Obstructions: 68 ft. trees, 1400 ft. from runway, 200 ft. left of centerline, 17:1 slope to clear55 ft. trees, 2000 ft. from runway, 300 ft. right of centerline, 32:1 slope to clear

Airport Ownership and Management from official FAA records

Ownership: Publicly-owned
Owner: COPIAH COUNTY
PO BOX 551
HAZELHURST, MS 39083
Phone 601-894-1858
RONNIE BARLOW
Manager: BRENT DUNCAN
1001 AIRPORT LN.
HAZELHURST, MS 39083
Phone 601-259-0019

Airport Operational Statistics

Aircraft based on the field: 18
Single engine airplanes: 17
Multi engine airplanes: 1
    
Aircraft operations: avg 21/day *
43% transient general aviation
34% military
22% local general aviation
* for 12-month period ending 27 March 2020

Additional Remarks

FOR CD CTC MEMPHIS ARTCC AT 901-368-8453.

Instrument Procedures

NOTE: All procedures below are presented as PDF files. If you need a reader for these files, you should download the free Adobe Reader.

NOT FOR NAVIGATION. Please procure official charts for flight.
FAA instrument procedures published for use from 31 December 2020 at 0901Z to 28 January 2021 at 0900Z.

 
IAPs - Instrument Approach Procedures
RNAV (GPS) RWY 18   download (202KB)
RNAV (GPS) RWY 36   download (238KB)
NOTE: Special Take-Off Minimums/Departure Procedures apply   download (215KB)

Other nearby airports with instrument procedures:

1R7 - Brookhaven-Lincoln County Airport (18 nm S)
KJVW - John Bell Williams Airport (24 nm N)
KHKS - Hawkins Field Airport (27 nm N)
KJAN - Jackson-Medgar Wiley Evers International Airport (29 nm NE)
17M - Magee Municipal Airport (29 nm E)
 
Loc | Ops | Rwys | IFR | FBO | Links
Com | Nav | Svcs | Stats | Notes
Area around M11 (Copiah County Airport)
 
Road maps at: MapQuest Bing Google
 
Aerial photo
WARNING: Photo may not be current or correct
Aerial photo of M11 (Copiah County Airport)
Photo by Danny Schnautz
Photo taken 30-Sep-2020
looking north-northwest.

Do you have a better or more recent aerial photo of Copiah County Airport that you would like to share? If so, please send us your photo.

 
Sectional chart

 
Airport distance calculator
Flying to Copiah County Airport? Find the distance to fly.

From to M11

Sunrise and sunset
Times for 16-Jan-2021
 Local
(UTC-6)
 Zulu
(UTC)
Morning civil twilight06:3712:37
Sunrise07:0313:03
Sunset17:2023:20
Evening civil twilight17:4623:46

Current date and time
Zulu (UTC)  16-Jan-2021 07:33:08
Local (UTC-6)  16-Jan-2021 01:33:08
 
METAR
K1R7 
18nm S 
160715Z AUTO 22005KT 10SM CLR 03/M06 A2995 RMK AO2 PWINO
KJVW 
24nm N 
160715Z AUTO 27008KT 10SM 03/M05 A2991 RMK AO2
KHKS 
27nm N 
160653Z AUTO 27009KT 10SM CLR 04/M07 A2991 RMK AO2 SLP122 T00391072
KJAN 
29nm NE 
160654Z AUTO 27007KT 10SM CLR 04/M07 A2990 RMK AO2 SLP125 T00441067
KMBO 
35nm NE 
160715Z AUTO 26005KT 10SM CLR 02/M06 A2990 RMK AO2
KVKS 
35nm NW 
160715Z AUTO 26005KT 10SM SCT050 SCT055 05/M07 A2993 RMK A01
TAF
KHKS 
27nm N 
160559Z 1606/1706 26010KT P6SM SKC
KJAN 
29nm NE 
160559Z 1606/1706 26010KT P6SM SKC
NOTAMs
Click for the latest NOTAMs
NOTAMs are issued by the DoD/FAA and will open in a separate window not controlled by AirNav.

 

 
 

FBO, Fuel Providers, and Aircraft Ground Support

  
 Business Name 
 
 Contact 
 
 Services / Description 
 
Fuel Prices
 
Comments
  
 Chautauqua Aviation, LLC
601-259-0019
[web site]
[email]
Airport management, Aviation fuel, Aircraft parking (ramp or tiedown), Hangar leasing / sales, Passenger terminal and lounge, Aircraft maintenance, Pilot supplies, ...

More info about Chautauqua Aviation, LLC
independent
100LL
SS $3.50 
 Updated 14-Dec-2020
 
   1 read write
SS=Self service
Update Fuel Prices
 

Would you like to see your business listed on this page?

 If your business provides an interesting product or service to pilots, flight crews, aircraft, or users of the Copiah County Airport, you should consider listing it here.  To start the listing process, click on the button below
 
Add a business
 

Other Pages about Copiah County Airport

Update a link
 
Copyright © AirNav, LLC. All rights reserved. Privacy Policy  Contact